Terminal Aerodrome Forecast
Issued by NWS

Home | Current Version | Previous Version | Text Only | Print | Product List | Glossary On
Versions: 1 2 3 4 5 6 7 8 9 10 11 12 13 14 15 16 17 18 19 20 21 22 23 24 25 26 27 28 29 30 31 32 33 34 35 36 37 38 39 40 41 42 43 44 45 46 47 48 49 50
000
FTUS46 KPQR 031759 AAA
TAFONP
TAF AMD
KONP 031759Z 0318/0418 32005KT 6SM -RA BR SCT005 OVC200
     FM032000 33012G22KT P6SM SCT010 SCT200
     FM040200 34009KT 4SM HZ OVC011
     FM040600 34005KT 1SM BR OVC007
     FM041700 00000KT 5SM BR OVC015=

USA.gov is the U.S. government's official web portal to all federal, state and local government web resources and services.